• In Latvia
  • List of Countries
  • For 7 days
  • Water Temperature
  • Satellite Maps
  • Weather Map
  • Weather Widgets
  • user-avatar
    Login

    Hourly Weather Tottori

    Today, 17 July, Tuesday

    Time Temperature Precipitation Wind Pressure Humidity
    00:00 +27°C° 0 mm 1 mps 729 mmHg 82%
    01:00 +26°C° 0 mm 1 mps 729 mmHg 83%
    02:00 +26°C° 0 mm 1 mps 729 mmHg 84%
    03:00 +26°C° 0 mm 1 mps 729 mmHg 84%
    04:00 +26°C° 0 mm 1 mps 729 mmHg 84%
    05:00 +26°C° 0 mm 1 mps 729 mmHg 84%
    06:00 +27°C° 0 mm 1 mps 729 mmHg 84%
    07:00 +29°C° 0 mm 1 mps 729 mmHg 75%
    08:00 +31°C° 0 mm 1 mps 729 mmHg 67%
    09:00 +33°C° 0 mm 1 mps 730 mmHg 59%
    10:00 +34°C° 0 mm 1 mps 730 mmHg 55%
    11:00 +36°C° 0 mm 2 mps 729 mmHg 51%
    12:00 +37°C° 0 mm 2 mps 729 mmHg 47%
    13:00 +37°C° 0 mm 2 mps 729 mmHg 47%
    14:00 +37°C° 0 mm 2 mps 729 mmHg 48%
    15:00 +37°C° 0 mm 2 mps 728 mmHg 48%
    16:00 +36°C° 0 mm 2 mps 728 mmHg 54%
    17:00 +34°C° 0 mm 1 mps 728 mmHg 59%
    18:00 +33°C° 0 mm 1 mps 728 mmHg 65%
    19:00 +31°C° 0 mm 1 mps 728 mmHg 70%
    20:00 +29°C° 0 mm 1 mps 728 mmHg 75%
    21:00 +28°C° 0 mm 1 mps 728 mmHg 79%
    22:00 +27°C° 0 mm 1 mps 728 mmHg 81%
    23:00 +27°C° 0 mm 1 mps 728 mmHg 82%

    Tomorrow, 18 July, Wednesday

    Time Temperature Precipitation Wind Pressure Humidity
    00:00 +27°C° 0 mm 1 mps 728 mmHg 83%
    01:00 +26°C° 0 mm 1 mps 728 mmHg 84%
    02:00 +26°C° 0 mm 1 mps 728 mmHg 85%
    03:00 +26°C° 0 mm 1 mps 728 mmHg 85%
    04:00 +26°C° 0 mm 1 mps 728 mmHg 85%
    05:00 +26°C° 0 mm 1 mps 728 mmHg 85%
    06:00 +27°C° 0 mm 1 mps 728 mmHg 85%
    07:00 +29°C° 0 mm 1 mps 729 mmHg 77%
    08:00 +31°C° 0 mm 1 mps 729 mmHg 69%
    09:00 +33°C° 0 mm 1 mps 729 mmHg 62%
    10:00 +34°C° 0 mm 1 mps 729 mmHg 58%
    11:00 +35°C° 0 mm 1 mps 729 mmHg 54%
    12:00 +38°C° 0 mm 2 mps 729 mmHg 51%
    13:00 +37°C° 0.1 mm 2 mps 728 mmHg 52%
    14:00 +37°C° 0.1 mm 2 mps 728 mmHg 54%
    15:00 +36°C° 0.1 mm 2 mps 728 mmHg 55%
    16:00 +35°C° 0.1 mm 2 mps 727 mmHg 60%
    17:00 +33°C° 0.1 mm 1 mps 727 mmHg 65%
    18:00 +32°C° 0.1 mm 1 mps 727 mmHg 70%
    19:00 +30°C° 0 mm 1 mps 727 mmHg 75%
    20:00 +29°C° 0 mm 1 mps 727 mmHg 80%
    21:00 +27°C° 0 mm 1 mps 727 mmHg 85%
    22:00 +27°C° 0 mm 1 mps 727 mmHg 84%
    23:00 +26°C° 0 mm 1 mps 727 mmHg 84%

    Day after tomorrow, 19 July, Thursday

    Time Temperature Precipitation Wind Pressure Humidity
    00:00 +26°C° 0 mm 1 mps 727 mmHg 84%
    01:00 +26°C° 0 mm 1 mps 727 mmHg 83%
    02:00 +26°C° 0 mm 1 mps 727 mmHg 82%
    03:00 +26°C° 0 mm 1 mps 727 mmHg 81%
    04:00 +26°C° 0 mm 1 mps 727 mmHg 81%
    05:00 +26°C° 0 mm 1 mps 727 mmHg 81%
    06:00 +26°C° 0 mm 1 mps 727 mmHg 81%
    07:00 +29°C° 0 mm 1 mps 728 mmHg 73%
    08:00 +31°C° 0 mm 1 mps 728 mmHg 65%
    09:00 +33°C° 0 mm 1 mps 728 mmHg 58%
    10:00 +34°C° 0 mm 1 mps 728 mmHg 55%
    11:00 +36°C° 0 mm 2 mps 728 mmHg 53%
    12:00 +37°C° 0 mm 2 mps 728 mmHg 50%
    13:00 +37°C° 0 mm 2 mps 728 mmHg 52%
    14:00 +36°C° 0 mm 2 mps 727 mmHg 53%
    15:00 +36°C° 0 mm 2 mps 727 mmHg 55%
    16:00 +35°C° 0 mm 2 mps 727 mmHg 59%
    17:00 +33°C° 0 mm 1 mps 727 mmHg 63%
    18:00 +32°C° 0 mm 1 mps 726 mmHg 68%
    19:00 +31°C° 0 mm 1 mps 727 mmHg 72%
    20:00 +29°C° 0 mm 1 mps 727 mmHg 76%
    21:00 +28°C° 0 mm 1 mps 727 mmHg 80%
    22:00 +27°C° 0 mm 1 mps 727 mmHg 82%
    23:00 +27°C° 0 mm 1 mps 727 mmHg 84%

    20 July, Friday

    Time Temperature Precipitation Wind Pressure Humidity
    00:00 +27°C° 0 mm 1 mps 727 mmHg 86%
    01:00 +26°C° 0 mm 1 mps 727 mmHg 88%
    02:00 +26°C° 0 mm 1 mps 727 mmHg 89%
    03:00 +26°C° 0 mm 1 mps 726 mmHg 91%
    04:00 +26°C° 0 mm 1 mps 727 mmHg 90%
    05:00 +26°C° 0 mm 1 mps 727 mmHg 89%
    06:00 +26°C° 0 mm 2 mps 727 mmHg 89%
    07:00 +28°C° 0 mm 1 mps 727 mmHg 80%
    08:00 +30°C° 0 mm 1 mps 727 mmHg 72%
    09:00 +32°C° 0 mm 1 mps 727 mmHg 63%
    10:00 +34°C° 0 mm 2 mps 727 mmHg 60%
    11:00 +35°C° 0 mm 2 mps 727 mmHg 56%
    12:00 +36°C° 0 mm 2 mps 727 mmHg 53%
    13:00 +36°C° 0.1 mm 2 mps 727 mmHg 54%
    14:00 +36°C° 0.1 mm 2 mps 727 mmHg 54%
    15:00 +35°C° 0.1 mm 2 mps 726 mmHg 55%
    16:00 +34°C° 0.2 mm 2 mps 726 mmHg 59%
    17:00 +32°C° 0.2 mm 2 mps 726 mmHg 63%
    18:00 +32°C° 0.2 mm 2 mps 726 mmHg 67%
    19:00 +30°C° 0 mm 2 mps 726 mmHg 73%
    20:00 +28°C° 0 mm 2 mps 726 mmHg 79%
    21:00 +27°C° 0 mm 2 mps 727 mmHg 85%
    22:00 +27°C° 0 mm 2 mps 727 mmHg 86%
    23:00 +26°C° 0 mm 2 mps 727 mmHg 88%

    21 July, Saturday

    Time Temperature Precipitation Wind Pressure Humidity
    00:00 +26°C° 0 mm 2 mps 727 mmHg 89%
    01:00 +26°C° 0 mm 2 mps 727 mmHg 90%
    02:00 +26°C° 0 mm 2 mps 727 mmHg 90%
    03:00 +25°C° 0 mm 2 mps 726 mmHg 91%
    04:00 +25°C° 0 mm 2 mps 727 mmHg 91%
    05:00 +26°C° 0 mm 2 mps 727 mmHg 91%
    06:00 +26°C° 0 mm 2 mps 727 mmHg 91%
    07:00 +27°C° 0 mm 2 mps 727 mmHg 83%
    08:00 +29°C° 0 mm 2 mps 728 mmHg 75%
    09:00 +31°C° 0 mm 2 mps 728 mmHg 67%
    10:00 +32°C° 0 mm 2 mps 728 mmHg 62%
    11:00 +35°C° 0 mm 2 mps 728 mmHg 57%
    12:00 +36°C° 0 mm 2 mps 728 mmHg 52%
    13:00 +36°C° 0 mm 2 mps 727 mmHg 51%
    14:00 +35°C° 0 mm 3 mps 727 mmHg 50%
    15:00 +35°C° 0 mm 3 mps 726 mmHg 49%
    16:00 +34°C° 0 mm 3 mps 726 mmHg 54%
    17:00 +32°C° 0 mm 2 mps 726 mmHg 60%
    18:00 +31°C° 0 mm 2 mps 726 mmHg 65%
    19:00 +29°C° 0 mm 2 mps 727 mmHg 70%
    20:00 +28°C° 0 mm 2 mps 727 mmHg 75%
    21:00 +26°C° 0 mm 2 mps 727 mmHg 79%
    22:00 +26°C° 0 mm 2 mps 727 mmHg 81%
    23:00 +25°C° 0 mm 2 mps 727 mmHg 82%

    22 July, Sunday

    Time Temperature Precipitation Wind Pressure Humidity
    00:00 +25°C° 0 mm 2 mps 727 mmHg 83%
    01:00 +25°C° 0 mm 2 mps 727 mmHg 85%
    02:00 +25°C° 0 mm 2 mps 727 mmHg 86%
    03:00 +25°C° 0 mm 2 mps 727 mmHg 88%
    04:00 +25°C° 0 mm 2 mps 727 mmHg 88%
    05:00 +25°C° 0 mm 2 mps 727 mmHg 88%
    06:00 +25°C° 0 mm 2 mps 727 mmHg 88%
    07:00 +28°C° 0 mm 1 mps 727 mmHg 79%
    08:00 +30°C° 0 mm 1 mps 727 mmHg 71%
    09:00 +32°C° 0 mm 1 mps 728 mmHg 62%
    10:00 +33°C° 0 mm 1 mps 727 mmHg 58%
    11:00 +35°C° 0 mm 2 mps 727 mmHg 54%
    12:00 +36°C° 0 mm 2 mps 727 mmHg 50%
    13:00 +36°C° 0 mm 2 mps 727 mmHg 50%
    14:00 +36°C° 0 mm 2 mps 726 mmHg 51%
    15:00 +36°C° 0 mm 2 mps 726 mmHg 51%
    16:00 +35°C° 0 mm 2 mps 726 mmHg 56%
    17:00 +34°C° 0 mm 2 mps 726 mmHg 60%
    18:00 +32°C° 0 mm 2 mps 726 mmHg 64%
    19:00 +30°C° 0 mm 1 mps 726 mmHg 68%
    20:00 +29°C° 0 mm 1 mps 726 mmHg 72%
    21:00 +27°C° 0 mm 1 mps 726 mmHg 76%
    22:00 +27°C° 0 mm 1 mps 726 mmHg 78%
    23:00 +26°C° 0 mm 1 mps 726 mmHg 79%
    Show more